カタログに戻る

FENGYUN 1C DEB

運用中SSO
NORAD 30462·DEBRIS·🇨🇳 China

打ち上げ May 10, 1999 から Taiyuan Satellite Launch Center

Loading…

次のパス (今後24時間)

TLE

最新Source: Space-Track

元期: Sep 13, 2026, 11:46 UTC

1 30462U 99025AFZ 26256.49049263  .00000397  00000-0  24419-3 0  9990
2 30462  98.8405 243.1022 0138971 198.3961 284.1836 14.06447060  6517

AllMySatでFENGYUN 1C DEBをリアルタイム追跡

Download on the App Store